Time,TemperatureF,DewpointF,PressureIn,WindDirection,WindDirectionDegrees,WindSpeedMPH,WindSpeedGustMPH,Humidity,HourlyPrecipIn,Conditions,Clouds,dailyrainin,SolarRadiationWatts/m^2,SoftwareType,DateUTC
2013-07-02 00:01:00,60.0,52.0,-100.00,NNE,26,0.0,3.0,75,0.00,,,0.00,0.000000,,2013-07-02 07:01:00,
2013-07-02 00:10:00,59.0,56.0,-100.00,North,9,0.0,0.0,89,0.00,,,0.00,0.000000,,2013-07-02 07:10:00,
2013-07-02 00:44:00,59.0,56.0,-100.00,North,9,0.0,0.0,89,0.00,,,0.00,0.000000,,2013-07-02 07:44:00,
2013-07-02 00:53:00,59.0,56.0,-100.00,North,9,0.0,0.0,89,0.00,,,0.00,0.000000,,2013-07-02 07:53:00,
2013-07-02 01:02:00,59.0,56.0,-100.00,North,9,0.0,0.0,89,0.00,,,0.00,0.000000,,2013-07-02 08:02:00,
2013-07-02 01:10:00,60.0,56.0,-100.00,North,1,0.0,6.0,86,0.00,,,0.00,0.000000,,2013-07-02 08:10:00,
2013-07-02 01:44:00,60.0,56.0,-100.00,North,1,0.0,6.0,86,0.00,,,0.00,0.000000,,2013-07-02 08:44:00,
2013-07-02 01:53:00,60.0,56.0,-100.00,North,1,0.0,6.0,86,0.00,,,0.00,0.000000,,2013-07-02 08:53:00,
2013-07-02 02:01:00,60.0,56.0,-100.00,North,1,0.0,6.0,86,0.00,,,0.00,0.000000,,2013-07-02 09:01:00,
2013-07-02 02:10:00,60.0,52.0,-100.00,NNE,24,4.0,10.0,75,0.00,,,0.00,0.000000,,2013-07-02 09:10:00,
2013-07-02 02:43:00,60.0,52.0,-100.00,NNE,24,4.0,10.0,75,0.00,,,0.00,0.000000,,2013-07-02 09:43:00,
2013-07-02 02:52:00,60.0,52.0,-100.00,NNE,24,4.0,10.0,75,0.00,,,0.00,0.000000,,2013-07-02 09:52:00,
2013-07-02 03:01:00,60.0,52.0,-100.00,NNE,24,4.0,10.0,75,0.00,,,0.00,0.000000,,2013-07-02 10:01:00,
2013-07-02 03:10:00,62.0,51.0,-100.00,NE,37,4.0,9.0,66,0.00,,,0.00,0.000000,,2013-07-02 10:10:00,
2013-07-02 03:44:00,62.0,51.0,-100.00,NE,37,4.0,9.0,66,0.00,,,0.00,0.000000,,2013-07-02 10:44:00,
2013-07-02 03:52:00,62.0,51.0,-100.00,NE,37,4.0,9.0,66,0.00,,,0.00,0.000000,,2013-07-02 10:52:00,
2013-07-02 04:01:00,62.0,51.0,-100.00,NE,37,4.0,9.0,66,0.00,,,0.00,0.000000,,2013-07-02 11:01:00,
2013-07-02 04:10:00,63.0,55.0,-100.00,ENE,57,0.0,8.0,75,0.00,,,0.00,0.000000,,2013-07-02 11:10:00,
2013-07-02 04:33:00,63.0,55.0,-100.00,ENE,57,0.0,8.0,75,0.00,,,0.00,0.000000,,2013-07-02 11:33:00,
2013-07-02 04:42:00,63.0,55.0,-100.00,ENE,57,0.0,8.0,75,0.00,,,0.00,0.000000,,2013-07-02 11:42:00,
2013-07-02 04:52:00,63.0,55.0,-100.00,ENE,57,0.0,8.0,75,0.00,,,0.00,0.000000,,2013-07-02 11:52:00,
2013-07-02 05:01:00,63.0,55.0,-100.00,ENE,57,0.0,8.0,75,0.00,,,0.00,0.000000,,2013-07-02 12:01:00,
2013-07-02 05:10:00,61.0,54.0,-100.00,NE,54,0.0,5.0,79,0.00,,,0.00,0.000000,,2013-07-02 12:10:00,
2013-07-02 05:43:00,61.0,54.0,-100.00,NE,54,0.0,5.0,79,0.00,,,0.00,0.000000,,2013-07-02 12:43:00,
2013-07-02 05:52:00,61.0,54.0,-100.00,NE,54,0.0,5.0,79,0.00,,,0.00,0.000000,,2013-07-02 12:52:00,
2013-07-02 06:01:00,61.0,54.0,-100.00,NE,54,0.0,5.0,79,0.00,,,0.00,0.000000,,2013-07-02 13:01:00,
2013-07-02 06:10:00,62.0,56.0,-100.00,NNE,29,0.0,6.0,80,0.00,,,0.00,3.000000,,2013-07-02 13:10:00,
2013-07-02 06:43:00,62.0,56.0,-100.00,NNE,29,0.0,6.0,80,0.00,,,0.00,3.000000,,2013-07-02 13:43:00,
2013-07-02 06:52:00,62.0,56.0,-100.00,NNE,29,0.0,6.0,80,0.00,,,0.00,3.000000,,2013-07-02 13:52:00,
2013-07-02 07:01:00,62.0,56.0,-100.00,NNE,29,0.0,6.0,80,0.00,,,0.00,3.000000,,2013-07-02 14:01:00,
2013-07-02 07:10:00,61.0,55.0,-100.00,North,10,1.0,6.0,80,0.00,,,0.00,24.000000,,2013-07-02 14:10:00,
2013-07-02 07:43:00,61.0,55.0,-100.00,North,10,1.0,6.0,80,0.00,,,0.00,24.000000,,2013-07-02 14:43:00,
2013-07-02 07:53:00,61.0,55.0,-100.00,North,10,1.0,6.0,80,0.00,,,0.00,24.000000,,2013-07-02 14:53:00,
2013-07-02 08:02:00,61.0,55.0,-100.00,North,10,1.0,6.0,80,0.00,,,0.00,24.000000,,2013-07-02 15:02:00,
2013-07-02 08:10:00,69.0,55.0,-100.00,East,96,0.0,0.0,62,0.00,,,0.00,138.000000,,2013-07-02 15:10:00,
2013-07-02 08:44:00,69.0,55.0,-100.00,East,96,0.0,0.0,62,0.00,,,0.00,138.000000,,2013-07-02 15:44:00,
2013-07-02 08:53:00,69.0,55.0,-100.00,East,96,0.0,0.0,62,0.00,,,0.00,138.000000,,2013-07-02 15:53:00,
2013-07-02 09:01:00,69.0,55.0,-100.00,East,96,0.0,0.0,62,0.00,,,0.00,138.000000,,2013-07-02 16:01:00,
2013-07-02 11:10:00,73.0,60.0,-100.00,WSW,244,0.0,5.0,63,0.00,,,0.00,915.000000,,2013-07-02 18:10:00,
2013-07-02 11:43:00,73.0,60.0,-100.00,WSW,244,0.0,5.0,63,0.00,,,0.00,915.000000,,2013-07-02 18:43:00,
2013-07-02 11:53:00,73.0,60.0,-100.00,WSW,244,0.0,5.0,63,0.00,,,0.00,915.000000,,2013-07-02 18:53:00,
2013-07-02 12:01:00,73.0,60.0,-100.00,WSW,244,0.0,5.0,63,0.00,,,0.00,915.000000,,2013-07-02 19:01:00,
2013-07-02 12:10:00,71.0,59.0,-100.00,North,354,1.0,7.0,65,0.00,,,0.00,1047.000000,,2013-07-02 19:10:00,
2013-07-02 12:43:00,71.0,59.0,-100.00,North,354,1.0,7.0,65,0.00,,,0.00,1047.000000,,2013-07-02 19:43:00,
2013-07-02 12:53:00,71.0,59.0,-100.00,North,354,1.0,7.0,65,0.00,,,0.00,1047.000000,,2013-07-02 19:53:00,
2013-07-02 13:01:00,71.0,59.0,-100.00,North,354,1.0,7.0,65,0.00,,,0.00,1047.000000,,2013-07-02 20:01:00,
2013-07-02 13:10:00,73.0,61.0,-100.00,NW,312,0.0,6.0,65,0.00,,,-99.99,1130.000000,,2013-07-02 20:10:00,
2013-07-02 13:43:00,73.0,61.0,-100.00,NW,312,0.0,6.0,65,0.00,,,-99.99,1130.000000,,2013-07-02 20:43:00,
2013-07-02 13:52:00,73.0,61.0,-100.00,NW,312,0.0,6.0,65,0.00,,,-99.99,1130.000000,,2013-07-02 20:52:00,
2013-07-02 14:02:00,73.0,61.0,-100.00,NW,312,0.0,6.0,65,0.00,,,-99.99,1130.000000,,2013-07-02 21:02:00,
2013-07-02 14:10:00,74.0,60.0,-100.00,West,259,1.0,7.0,61,0.00,,,0.00,1147.000000,,2013-07-02 21:10:00,
2013-07-02 14:44:00,74.0,60.0,-100.00,West,259,1.0,7.0,61,0.00,,,0.00,1147.000000,,2013-07-02 21:44:00,
2013-07-02 14:52:00,74.0,60.0,-100.00,West,259,1.0,7.0,61,0.00,,,0.00,1147.000000,,2013-07-02 21:52:00,
2013-07-02 15:01:00,74.0,60.0,-100.00,West,259,1.0,7.0,61,0.00,,,0.00,1147.000000,,2013-07-02 22:01:00,
2013-07-02 15:10:00,75.0,58.0,-100.00,WNW,291,2.0,8.0,56,0.00,,,0.00,1096.000000,,2013-07-02 22:10:00,
2013-07-02 15:34:00,75.0,58.0,-100.00,WNW,291,2.0,8.0,56,0.00,,,0.00,1096.000000,,2013-07-02 22:34:00,
2013-07-02 15:43:00,75.0,58.0,-100.00,WNW,291,2.0,8.0,56,0.00,,,0.00,1096.000000,,2013-07-02 22:43:00,
2013-07-02 15:53:00,75.0,58.0,-100.00,WNW,291,2.0,8.0,56,0.00,,,0.00,1096.000000,,2013-07-02 22:53:00,
2013-07-02 16:01:00,75.0,58.0,-100.00,WNW,291,2.0,8.0,56,0.00,,,0.00,1096.000000,,2013-07-02 23:01:00,
2013-07-02 18:43:00,75.0,56.0,-100.00,NNE,12,2.0,14.0,52,0.00,,,0.00,679.000000,,2013-07-03 01:43:00,
2013-07-02 20:36:00,69.0,50.0,-100.00,NNE,17,5.0,11.0,50,-99.99,,,0.00,241.000000,,2013-07-03 03:36:00,
2013-07-02 20:49:00,69.0,50.0,-100.00,NNE,17,5.0,11.0,50,-99.99,,,0.00,241.000000,,2013-07-03 03:49:00,
2013-07-02 20:58:00,69.0,50.0,-100.00,NNE,17,5.0,11.0,50,-99.99,,,0.00,241.000000,,2013-07-03 03:58:00,
2013-07-02 21:10:00,61.0,50.0,-100.00,NNE,19,6.0,13.0,67,-99.99,,,0.00,23.000000,,2013-07-03 04:10:00,
2013-07-02 21:43:00,61.0,50.0,-100.00,NNE,19,6.0,13.0,67,-99.99,,,0.00,23.000000,,2013-07-03 04:43:00,
2013-07-02 21:52:00,61.0,50.0,-100.00,NNE,19,6.0,13.0,67,-99.99,,,0.00,23.000000,,2013-07-03 04:52:00,
2013-07-02 22:01:00,61.0,50.0,-100.00,NNE,19,6.0,13.0,67,-99.99,,,0.00,23.000000,,2013-07-03 05:01:00,
2013-07-02 22:10:00,61.0,49.0,-100.00,NNE,17,4.0,12.0,64,0.00,,,0.00,1.000000,,2013-07-03 05:10:00,
2013-07-02 22:48:00,61.0,49.0,-100.00,NNE,17,4.0,12.0,64,0.00,,,0.00,1.000000,,2013-07-03 05:48:00,
2013-07-02 22:58:00,61.0,49.0,-100.00,NNE,17,4.0,12.0,64,0.00,,,0.00,1.000000,,2013-07-03 05:58:00,
2013-07-02 23:02:00,61.0,49.0,-100.00,NNE,17,4.0,12.0,64,0.00,,,0.00,1.000000,,2013-07-03 06:02:00,
2013-07-02 23:10:00,60.0,49.0,-100.00,NNE,18,4.0,13.0,66,0.00,,,0.00,0.000000,,2013-07-03 06:10:00,
2013-07-02 23:50:00,60.0,49.0,-100.00,NNE,18,4.0,13.0,66,0.00,,,0.00,0.000000,,2013-07-03 06:50:00,
2013-07-02 23:57:00,60.0,49.0,-100.00,NNE,18,4.0,13.0,66,0.00,,,0.00,0.000000,,2013-07-03 06:57:00,